Location: Cave
(41.8160°N, 12.9350°E)
Time: 12:27:36
(UTC+01:00)

ISS - Pass Details

Date: 07 March 2019
Orbit: 406 x 411 km, 51.6° (Epoch: 21 March)

Event Time Altitude Azimuth Distance (km) Brightness Sun altitude
Exits shadow 04:26:51 15° 11° (N) 1,219 -1.2 -24.4°
Drops below altitude 10° 04:28:07 10° 32° (NNE) 1,468 -0.4 -24.2°
Enters shadow 05:23:44 -72° 260° (W) 12,578 3.7 -14.0°
Maximum altitude 06:03:30 18° 13° (NNE) 1,088 -1.5 -6.6°
